Regional Weather Roundup
Issued by NWS Albany, NY

Home | Current Version | Previous Version | Text Only | Print | Product List | Glossary On
Versions: 1 2 3 4 5 6 7 8 9 10 11 12 13 14 15 16 17 18 19 20 21 22 23 24 25 26 27 28 29 30 31 32 33 34 35 36 37 38 39 40 41 42 43 44 45 46 47 48
000
ASUS41 KALY 300410
RWRALY

NEW YORK STATE HOURLY WEATHER ROUNDUP
NATIONAL WEATHER SERVICE ALBANY NY
1200 AM EDT TUE SEP 30 2014

NOTE: "FAIR" INDICATES FEW OR NO CLOUDS BELOW 12,000 FEET WITH NO
SIGNIFICANT WEATHER AND/OR NO OBSTRUCTIONS TO VISIBILITY.

NYZ032-033-038>043-046>054-057>066-NYZ062>081-300500-
EAST


CITY           SKY/WX    TMP DP  RH WIND       PRES   REMARKS
ALBANY         MOCLDY    59  57  93 CALM      29.94S
GLENS FALLS    FOG       53  51  93 CALM      29.95R VSB 1
POUGHKEEPSIE   CLOUDY    65  61  87 CALM      29.92S
NEWBURGH       MOCLDY    64  61  88 CALM      29.94F
MONTGOMERY     CLOUDY    62  59  90 CALM      29.92F
WHITE PLAINS   CLOUDY    64  62  93 SE3       29.93F
ISLIP          CLOUDY    68  66  93 SW3       29.92F
NEW YORK CITY  CLOUDY    72  59  63 SW3       29.92F
CENTRAL PARK   CLOUDY    71  57  61 CALM      29.95F
$$

NYZ005>009-017-018-044>046-055-056-300500-
CENTRAL


CITY           SKY/WX    TMP DP  RH WIND       PRES   REMARKS
FULTON         CLEAR     57  53  86 CALM      29.89F
SYRACUSE       PTCLDY    59  56  89 E6        29.89S
ROME           CLEAR     57  55  93 SE3       29.92S
ELMIRA         CLEAR     53  53 100 CALM      29.90F
BINGHAMTON     CLEAR     59  55  87 SE5       29.93F
MONTICELLO     PTCLDY    57  55  94 CALM      29.97S
$$

NYZ026>034-041>043-300500-
NORTH


CITY           SKY/WX    TMP DP  RH WIND       PRES   REMARKS
WATERTOWN      CLEAR     54  49  83 E3        29.88F
FORT DRUM      NOT AVBL
MASSENA        PTCLDY    50  47  89 E12       29.96R
SARANAC LAKE   CLEAR     52  51  97 N3        29.95R
PLATTSBURGH    CLEAR     49  44  83 N7        29.98R
$$

NYZ001>004-010>016-019>021-300500-
WEST


CITY           SKY/WX    TMP DP  RH WIND       PRES   REMARKS
NIAGARA FALLS  CLEAR     61  59  93 S6        29.88F FOG
BUFFALO        PTCLDY    59  55  87 SE6       29.90F
DUNKIRK        CLEAR     52  50  93 S3        29.90F
JAMESTOWN      CLEAR     55  52  88 CALM      29.93F
WELLSVILLE     CLEAR     57  53  86 CALM      29.95F
ROCHESTER      MOCLDY    59  56  89 SW3       29.89F
PENN YAN       PTCLDY    55  53  93 SE3       29.90F
$$

             KEY
       WCI = WIND CHILL INDEX
       VSB = VISIBILITY
       HX  = HEAT INDEX
$$


USA.gov is the U.S. government's official web portal to all federal, state and local government web resources and services.